| time (UTC) | temp C | wind direction | speed KPH | gust KPH | rain 1hr cm | rain 24hr cm | rain mn cm | humidity % | barometer mb |
| 20260510081612 | 23 | 267 | 1.6 | 4.8 | 0.00 | 0.00 | 0.00 | 94 | 1011.7 |
| 20260510081108 | 23 | 170 | 3.2 | 6.4 | 0.00 | 0.00 | 0.00 | 94 | 1011.8 |
| 20260510080608 | 23 | 122 | 3.2 | 4.8 | 0.00 | 0.00 | 0.00 | 94 | 1011.7 |
| 20260510080104 | 23 | 152 | 3.2 | 6.4 | 0.00 | 0.00 | 0.00 | 94 | 1011.7 |
| 20260510075602 | 23 | 129 | 6.4 | 9.7 | 0.00 | 0.00 | 0.00 | 94 | 1011.8 |
| 20260510075058 | 23 | 112 | 1.6 | 3.2 | 0.00 | 0.00 | 0.00 | 94 | 1011.5 |
| 20260510074556 | 23 | 126 | 1.6 | 6.4 | 0.00 | 0.00 | 0.00 | 94 | 1011.7 |
| 20260510074051 | 23 | 96 | 3.2 | 6.4 | 0.00 | 0.00 | 0.00 | 94 | 1011.6 |
| 20260510073547 | 23 | 120 | 3.2 | 6.4 | 0.00 | 0.00 | 0.00 | 94 | 1011.6 |
| 20260510073045 | 23 | 182 | 3.2 | 4.8 | 0.00 | 0.00 | 0.00 | 94 | 1011.8 |
| 20260510072541 | 23 | 108 | 3.2 | 4.8 | 0.00 | 0.00 | 0.00 | 94 | 1011.6 |
| 20260510072037 | 23 | 115 | 3.2 | 9.7 | 0.00 | 0.00 | 0.00 | 94 | 1011.7 |
| 20260510071533 | 23 | 134 | 3.2 | 9.7 | 0.00 | 0.00 | 0.00 | 93 | 1011.8 |
| 20260510071031 | 23 | 124 | 3.2 | 9.7 | 0.00 | 0.00 | 0.00 | 93 | 1011.7 |
| 20260510070528 | 23 | 110 | 3.2 | 4.8 | 0.00 | 0.00 | 0.00 | 93 | 1011.8 |
| 20260510070025 | 23 | 157 | 1.6 | 6.4 | 0.00 | 0.00 | 0.00 | 93 | 1012.0 |
| 20260510065521 | 23 | 135 | 3.2 | 11.3 | 0.00 | 0.00 | 0.00 | 93 | 1011.9 |
| 20260510065017 | 23 | 147 | 4.8 | 6.4 | 0.00 | 0.00 | 0.00 | 93 | 1011.8 |
| 20260510064514 | 23 | 290 | 3.2 | 9.7 | 0.00 | 0.00 | 0.00 | 92 | 1012.0 |
| 20260510064011 | 23 | 135 | 4.8 | 11.3 | 0.00 | 0.00 | 0.00 | 92 | 1011.9 |
| 20260510063508 | 24 | 100 | 4.8 | 11.3 | 0.00 | 0.00 | 0.00 | 92 | 1012.1 |
| 20260510063005 | 24 | 138 | 1.6 | 9.7 | 0.00 | 0.00 | 0.00 | 92 | 1012.0 |
| 20260510062500 | 24 | 148 | 4.8 | 9.7 | 0.00 | 0.00 | 0.00 | 91 | 1012.0 |
| 20260510061955 | 24 | 184 | 4.8 | 9.7 | 0.00 | 0.00 | 0.00 | 91 | 1012.0 |
| 20260510061453 | 24 | 144 | 3.2 | 4.8 | 0.00 | 0.00 | 0.00 | 91 | 1012.2 |
| 20260510060949 | 24 | 132 | 3.2 | 4.8 | 0.00 | 0.00 | 0.00 | 90 | 1012.1 |
| 20260510060446 | 24 | 149 | 1.6 | 9.7 | 0.00 | 0.00 | 0.00 | 90 | 1012.3 |
| 20260510055942 | 24 | 132 | 3.2 | 6.4 | 0.00 | 0.00 | 0.00 | 89 | 1012.3 |
| 20260510055438 | 24 | 130 | 1.6 | 4.8 | 0.00 | 0.00 | 0.00 | 89 | 1012.3 |
| 20260510054936 | 24 | 132 | 6.4 | 11.3 | 0.00 | 0.00 | 0.00 | 88 | 1012.0 |
| 20260510054431 | 24 | 128 | 6.4 | 12.9 | 0.00 | 0.00 | 0.00 | 88 | 1012.0 |
| 20260510053926 | 24 | 111 | 3.2 | 16.1 | 0.00 | 0.00 | 0.00 | 88 | 1012.1 |
| 20260510053422 | 24 | 149 | 6.4 | 11.3 | 0.00 | 0.00 | 0.00 | 89 | 1012.0 |
| 20260510052919 | 24 | 142 | 6.4 | 12.9 | 0.00 | 0.00 | 0.00 | 89 | 1012.1 |
| 20260510052414 | 24 | 176 | 6.4 | 11.3 | 0.00 | 0.00 | 0.00 | 89 | 1012.4 |
| 20260510051911 | 24 | 117 | 6.4 | 9.7 | 0.00 | 0.00 | 0.00 | 89 | 1012.4 |
| 20260510051408 | 24 | 130 | 0.0 | 4.8 | 0.00 | 0.00 | 0.00 | 89 | 1012.7 |
| 20260510050904 | 24 | 135 | 3.2 | 4.8 | 0.00 | 0.00 | 0.00 | 89 | 1012.7 |
| 20260510050401 | 24 | 128 | 3.2 | 6.4 | 0.00 | 0.00 | 0.00 | 88 | 1013.0 |
| 20260510045858 | 24 | 134 | 3.2 | 9.7 | 0.00 | 0.00 | 0.00 | 87 | 1012.8 |
| 20260510045355 | 24 | 127 | 3.2 | 4.8 | 0.00 | 0.00 | 0.00 | 86 | 1012.7 |
| 20260510044852 | 24 | 20 | 0.0 | 4.8 | 0.00 | 0.00 | 0.00 | 86 | 1012.6 |
| 20260510044348 | 24 | 112 | 3.2 | 4.8 | 0.00 | 0.00 | 0.00 | 86 | 1012.6 |
| 20260510043845 | 24 | 231 | 1.6 | 6.4 | 0.00 | 0.00 | 0.00 | 85 | 1012.7 |
| 20260510043341 | 24 | 115 | 1.6 | 4.8 | 0.00 | 0.00 | 0.00 | 85 | 1012.8 |
| 20260510042839 | 24 | 240 | 3.2 | 3.2 | 0.00 | 0.00 | 0.00 | 84 | 1012.4 |
| 20260510042334 | 25 | 74 | 0.0 | 4.8 | 0.00 | 0.00 | 0.00 | 84 | 1012.5 |
| 20260510041831 | 25 | 115 | 3.2 | 6.4 | 0.00 | 0.00 | 0.00 | 83 | 1012.5 |
| 20260510041328 | 25 | 105 | 4.8 | 6.4 | 0.00 | 0.00 | 0.00 | 83 | 1012.7 |
| 20260510040825 | 25 | 80 | 3.2 | 3.2 | 0.00 | 0.00 | 0.00 | 81 | 1012.5 |
| 20260510040322 | 25 | 129 | 1.6 | 3.2 | 0.00 | 0.00 | 0.00 | 80 | 1012.5 |
| 20260510035818 | 25 | 162 | 3.2 | 4.8 | 0.00 | 0.00 | 0.00 | 79 | 1012.7 |
| 20260510035314 | 25 | 115 | 3.2 | 6.4 | 0.00 | 0.00 | 0.00 | 79 | 1012.6 |
| 20260510034810 | 25 | 149 | 3.2 | 11.3 | 0.00 | 0.00 | 0.00 | 78 | 1012.7 |
| 20260510034308 | 25 | 184 | 4.8 | 11.3 | 0.00 | 0.00 | 0.00 | 78 | 1012.6 |
| 20260510033804 | 25 | 112 | 4.8 | 9.7 | 0.00 | 0.00 | 0.00 | 78 | 1012.7 |
| 20260510033301 | 25 | 112 | 3.2 | 11.3 | 0.00 | 0.00 | 0.00 | 77 | 1013.0 |
| 20260510032757 | 26 | 110 | 6.4 | 9.7 | 0.00 | 0.00 | 0.00 | 76 | 1012.7 |
| 20260510032253 | 26 | 119 | 3.2 | 4.8 | 0.00 | 0.00 | 0.00 | 75 | 1012.7 |
| 20260510031749 | 26 | 120 | 3.2 | 9.7 | 0.00 | 0.00 | 0.00 | 73 | 1012.9 |
| 20260510031245 | 26 | 144 | 0.0 | 4.8 | 0.00 | 0.00 | 0.00 | 72 | 1012.7 |
| 20260510030739 | 26 | 263 | 3.2 | 12.9 | 0.00 | 0.00 | 0.00 | 71 | 1012.6 |
| 20260510030236 | 26 | 144 | 3.2 | 4.8 | 0.00 | 0.00 | 0.00 | 69 | 1012.4 |
| 20260510025734 | 26 | 57 | 3.2 | 9.7 | 0.00 | 0.00 | 0.00 | 68 | 1012.2 |
| 20260510025232 | 26 | 169 | 3.2 | 4.8 | 0.00 | 0.00 | 0.00 | 66 | 1012.0 |
| 20260510024728 | 26 | 219 | 4.8 | 9.7 | 0.00 | 0.00 | 0.00 | 66 | 1011.8 |
| 20260510024225 | 26 | 157 | 4.8 | 9.7 | 0.00 | 0.00 | 0.00 | 65 | 1011.7 |
| 20260510023720 | 26 | 73 | 9.7 | 14.5 | 0.00 | 0.00 | 0.00 | 64 | 1011.6 |
| 20260510023218 | 26 | 82 | 3.2 | 9.7 | 0.00 | 0.00 | 0.00 | 64 | 1011.4 |
| 20260510022714 | 27 | 147 | 4.8 | 11.3 | 0.00 | 0.00 | 0.00 | 63 | 1011.2 |
| 20260510022214 | 27 | 212 | 3.2 | 6.4 | 0.00 | 0.00 | 0.00 | 62 | 1011.4 |
| 20260510021709 | 27 | 105 | 3.2 | 6.4 | 0.00 | 0.00 | 0.00 | 61 | 1011.2 |
| 20260510021206 | 27 | 130 | 3.2 | 6.4 | 0.00 | 0.00 | 0.00 | 61 | 1010.9 |
| 20260510020701 | 27 | 139 | 9.7 | 14.5 | 0.00 | 0.00 | 0.00 | 60 | 1010.4 |
| 20260510020156 | 27 | 181 | 4.8 | 4.8 | 0.00 | 0.00 | 0.00 | 60 | 1010.8 |
| 20260510015653 | 27 | 138 | 0.0 | 3.2 | 0.00 | 0.00 | 0.00 | 60 | 1010.5 |
| 20260510015150 | 27 | 30 | 3.2 | 4.8 | 0.00 | 0.00 | 0.00 | 60 | 1010.5 |
| 20260510014650 | 27 | 122 | 0.0 | 4.8 | 0.00 | 0.00 | 0.00 | 60 | 1010.4 |
| 20260510014148 | 27 | 132 | 4.8 | 4.8 | 0.00 | 0.00 | 0.00 | 61 | 1010.1 |
| 20260510013642 | 27 | 244 | 0.0 | 1.6 | 0.00 | 0.00 | 0.00 | 61 | 1010.0 |
| 20260510013138 | 27 | 102 | 4.8 | 9.7 | 0.00 | 0.00 | 0.00 | 60 | 1009.9 |
| 20260510012638 | 27 | 220 | 4.8 | 6.4 | 0.00 | 0.00 | 0.00 | 60 | 1009.8 |
| 20260510012134 | 28 | 346 | 3.2 | 6.4 | 0.00 | 0.00 | 0.00 | 58 | 1009.7 |
| 20260510011635 | 28 | 148 | 1.6 | 4.8 | 0.00 | 0.00 | 0.00 | 58 | 1009.6 |
| 20260510011130 | 28 | 130 | 3.2 | 6.4 | 0.00 | 0.00 | 0.00 | 57 | 1009.2 |
| 20260510010627 | 27 | 120 | 4.8 | 12.9 | 0.00 | 0.00 | 0.00 | 58 | 1009.3 |
| 20260510010124 | 27 | 105 | 3.2 | 9.7 | 0.00 | 0.00 | 0.00 | 60 | 1009.2 |
| 20260510005619 | 27 | 145 | 3.2 | 3.2 | 0.00 | 0.00 | 0.00 | 59 | 1009.5 |
| 20260510005117 | 27 | 208 | 0.0 | 1.6 | 0.00 | 0.00 | 0.00 | 57 | 1009.7 |
| 20260510004615 | 28 | 49 | 0.0 | 3.2 | 0.00 | 0.00 | 0.00 | 56 | 1009.6 |
| 20260510004113 | 29 | 16 | 1.6 | 4.8 | 0.00 | 0.00 | 0.00 | 57 | 1009.5 |
| 20260510003610 | 29 | 308 | 0.0 | 0.0 | 0.00 | 0.00 | 0.00 | 62 | 1009.7 |
| 20260510003106 | 29 | 327 | 0.0 | 0.0 | 0.00 | 0.00 | 0.00 | 62 | 1009.4 |
| 20260510002600 | 29 | 271 | 0.0 | 0.0 | 0.00 | 0.00 | 0.00 | 62 | 1009.3 |
| 20260510002057 | 29 | 5 | 0.0 | 0.0 | 0.00 | 0.00 | 0.00 | 60 | 1009.3 |
| 20260510001554 | 30 | 8 | 0.0 | 0.0 | 0.00 | 0.00 | 0.00 | 60 | 1009.2 |
| 20260510001053 | 30 | 127 | 0.0 | 0.0 | 0.00 | 0.00 | 0.00 | 58 | 1009.2 |
| 20260510000548 | 30 | 130 | 0.0 | 1.6 | 0.00 | 0.00 | 0.00 | 58 | 1009.3 |
| 20260510000046 | 30 | 187 | 0.0 | 0.0 | 0.00 | 0.00 | 0.00 | 57 | 1009.2 |
| 20260509235541 | 30 | 146 | 1.6 | 3.2 | 0.00 | 0.00 | 0.00 | 56 | 1009.0 |
| 20260509235038 | 30 | 137 | 0.0 | 3.2 | 0.00 | 0.00 | 0.00 | 56 | 1009.0 |
| 20260509234534 | 30 | 145 | 1.6 | 4.8 | 0.00 | 0.00 | 0.00 | 55 | 1008.9 |
| 20260509234032 | 30 | 146 | 3.2 | 9.7 | 0.00 | 0.00 | 0.00 | 55 | 1008.7 |
| 20260509233530 | 30 | 95 | 1.6 | 9.7 | 0.00 | 0.00 | 0.00 | 56 | 1008.7 |
| 20260509233027 | 30 | 251 | 1.6 | 6.4 | 0.00 | 0.00 | 0.00 | 56 | 1009.0 |
| 20260509232523 | 30 | 135 | 3.2 | 3.2 | 0.00 | 0.00 | 0.00 | 55 | 1008.8 |
| 20260509232020 | 30 | 74 | 3.2 | 4.8 | 0.00 | 0.00 | 0.00 | 55 | 1008.9 |
| 20260509231516 | 31 | 208 | 1.6 | 3.2 | 0.00 | 0.00 | 0.00 | 54 | 1008.8 |
| 20260509231015 | 31 | 169 | 0.0 | 4.8 | 0.00 | 0.00 | 0.00 | 54 | 1009.1 |
| 20260509230511 | 31 | 110 | 3.2 | 9.7 | 0.00 | 0.00 | 0.00 | 53 | 1008.9 |
| 20260509230008 | 32 | 131 | 6.4 | 11.3 | 0.00 | 0.00 | 0.00 | 51 | 1008.8 |
| 20260509225503 | 32 | 84 | 1.6 | 3.2 | 0.00 | 0.00 | 0.00 | 53 | 1008.9 |
| 20260509224959 | 32 | 217 | 3.2 | 6.4 | 0.00 | 0.00 | 0.00 | 50 | 1008.9 |
| 20260509224454 | 32 | 279 | 0.0 | 1.6 | 0.00 | 0.00 | 0.00 | 50 | 1008.8 |
| 20260509223952 | 32 | 98 | 3.2 | 4.8 | 0.00 | 0.00 | 0.00 | 48 | 1008.6 |
| 20260509223448 | 32 | 136 | 3.2 | 4.8 | 0.00 | 0.00 | 0.00 | 50 | 1008.6 |
| 20260509222946 | 32 | 165 | 3.2 | 4.8 | 0.00 | 0.00 | 0.00 | 50 | 1008.5 |
| 20260509222441 | 33 | 144 | 1.6 | 4.8 | 0.00 | 0.00 | 0.00 | 46 | 1008.6 |
| 20260509221937 | 32 | 212 | 1.6 | 3.2 | 0.00 | 0.00 | 0.00 | 48 | 1008.5 |
| 20260509221434 | 32 | 117 | 3.2 | 9.7 | 0.00 | 0.00 | 0.00 | 47 | 1008.7 |
| 20260509220930 | 32 | 159 | 3.2 | 9.7 | 0.00 | 0.00 | 0.00 | 50 | 1008.7 |
| 20260509220426 | 32 | 151 | 6.4 | 11.3 | 0.00 | 0.00 | 0.00 | 47 | 1008.8 |
| 20260509215922 | 32 | 126 | 1.6 | 6.4 | 0.00 | 0.00 | 0.00 | 48 | 1008.6 |
| 20260509215418 | 33 | 130 | 1.6 | 3.2 | 0.00 | 0.00 | 0.00 | 47 | 1008.5 |
| 20260509214915 | 33 | 294 | 1.6 | 3.2 | 0.00 | 0.00 | 0.00 | 44 | 1008.5 |
| 20260509214413 | 33 | 126 | 3.2 | 4.8 | 0.00 | 0.00 | 0.00 | 44 | 1008.7 |
| 20260509213910 | 33 | 119 | 1.6 | 1.6 | 0.00 | 0.00 | 0.00 | 46 | 1008.5 |
| 20260509213405 | 33 | 284 | 3.2 | 3.2 | 0.00 | 0.00 | 0.00 | 45 | 1008.6 |
| 20260509212903 | 33 | 157 | 0.0 | 3.2 | 0.00 | 0.00 | 0.00 | 47 | 1008.5 |
| 20260509212400 | 33 | 100 | 0.0 | 3.2 | 0.00 | 0.00 | 0.00 | 47 | 1008.6 |
| 20260509211856 | 33 | 153 | 3.2 | 4.8 | 0.00 | 0.00 | 0.00 | 48 | 1008.5 |
| 20260509211352 | 33 | 109 | 3.2 | 9.7 | 0.00 | 0.00 | 0.00 | 46 | 1008.7 |
| 20260509210848 | 33 | 264 | 1.6 | 4.8 | 0.00 | 0.00 | 0.00 | 45 | 1008.7 |
| 20260509210346 | 33 | 115 | 1.6 | 3.2 | 0.00 | 0.00 | 0.00 | 49 | 1008.6 |
| 20260509205846 | 33 | 224 | 3.2 | 4.8 | 0.00 | 0.00 | 0.00 | 50 | 1008.7 |
| 20260509205340 | 32 | 248 | 0.0 | 6.4 | 0.00 | 0.00 | 0.00 | 50 | 1009.0 |
| 20260509204838 | 33 | 74 | 3.2 | 4.8 | 0.00 | 0.00 | 0.00 | 47 | 1008.7 |
| 20260509204334 | 32 | 141 | 3.2 | 6.4 | 0.00 | 0.00 | 0.00 | 50 | 1008.8 |
| 20260509203830 | 32 | 273 | 1.6 | 4.8 | 0.00 | 0.00 | 0.00 | 49 | 1008.9 |
| 20260509203327 | 32 | 208 | 0.0 | 3.2 | 0.00 | 0.00 | 0.00 | 49 | 1009.0 |
| 20260509202823 | 33 | 126 | 4.8 | 9.7 | 0.00 | 0.00 | 0.00 | 49 | 1009.3 |
| 20260509202320 | 33 | 43 | 1.6 | 6.4 | 0.00 | 0.00 | 0.00 | 49 | 1009.1 |
| 20260509201819 | 33 | 146 | 1.6 | 3.2 | 0.00 | 0.00 | 0.00 | 49 | 1009.3 |
| 20260509201316 | 33 | 31 | 1.6 | 3.2 | 0.00 | 0.00 | 0.00 | 49 | 1009.2 |
| 20260509200812 | 32 | 334 | 0.0 | 1.6 | 0.00 | 0.00 | 0.00 | 53 | 1009.4 |
| 20260509200308 | 32 | 72 | 0.0 | 4.8 | 0.00 | 0.00 | 0.00 | 51 | 1009.5 |
| 20260509195804 | 32 | 90 | 3.2 | 6.4 | 0.00 | 0.00 | 0.00 | 54 | 1009.5 |
| 20260509195259 | 33 | 346 | 3.2 | 4.8 | 0.00 | 0.00 | 0.00 | 51 | 1009.6 |
| 20260509194759 | 33 | 264 | 0.0 | 3.2 | 0.00 | 0.00 | 0.00 | 52 | 1009.5 |
| 20260509194255 | 33 | 127 | 1.6 | 3.2 | 0.00 | 0.00 | 0.00 | 56 | 1009.7 |
| 20260509193752 | 33 | 90 | 1.6 | 4.8 | 0.00 | 0.00 | 0.00 | 55 | 1009.7 |
| 20260509193247 | 33 | 79 | 0.0 | 4.8 | 0.00 | 0.00 | 0.00 | 55 | 1009.6 |
| 20260509192743 | 32 | 143 | 1.6 | 6.4 | 0.00 | 0.00 | 0.00 | 53 | 1009.7 |
| 20260509192244 | 32 | 70 | 0.0 | 4.8 | 0.00 | 0.00 | 0.00 | 51 | 1009.9 |
| 20260509191739 | 32 | 24 | 0.0 | 3.2 | 0.00 | 0.00 | 0.00 | 51 | 1009.7 |
| 20260509191236 | 32 | 323 | 3.2 | 4.8 | 0.00 | 0.00 | 0.00 | 49 | 1009.6 |
| 20260509190732 | 32 | 121 | 3.2 | 4.8 | 0.00 | 0.00 | 0.00 | 49 | 1009.6 |
| 20260509190229 | 32 | 239 | 4.8 | 6.4 | 0.00 | 0.00 | 0.00 | 51 | 1009.6 |
| 20260509185727 | 32 | 160 | 1.6 | 4.8 | 0.00 | 0.00 | 0.00 | 54 | 1010.0 |
| 20260509185223 | 32 | 123 | 1.6 | 3.2 | 0.00 | 0.00 | 0.00 | 53 | 1009.8 |
| 20260509184721 | 32 | 120 | 3.2 | 4.8 | 0.00 | 0.00 | 0.00 | 57 | 1009.7 |
| 20260509184218 | 32 | 111 | 1.6 | 3.2 | 0.00 | 0.00 | 0.00 | 56 | 1009.9 |
| 20260509183714 | 32 | 40 | 0.0 | 1.6 | 0.00 | 0.00 | 0.00 | 57 | 1009.9 |
| 20260509183209 | 32 | 242 | 0.0 | 1.6 | 0.00 | 0.00 | 0.00 | 55 | 1010.1 |
| 20260509182705 | 31 | 343 | 0.0 | 1.6 | 0.00 | 0.00 | 0.00 | 61 | 1010.1 |
| 20260509182203 | 31 | 277 | 3.2 | 4.8 | 0.00 | 0.00 | 0.00 | 58 | 1010.2 |
| 20260509181700 | 31 | 219 | 4.8 | 4.8 | 0.00 | 0.00 | 0.00 | 59 | 1010.2 |
| 20260509181157 | 31 | 108 | 4.8 | 6.4 | 0.00 | 0.00 | 0.00 | 63 | 1010.3 |
| 20260509180654 | 31 | 299 | 0.0 | 1.6 | 0.00 | 0.00 | 0.00 | 63 | 1010.3 |
| 20260509180150 | 31 | 207 | 3.2 | 3.2 | 0.00 | 0.00 | 0.00 | 62 | 1010.6 |
| 20260509175646 | 31 | 248 | 1.6 | 3.2 | 0.00 | 0.00 | 0.00 | 60 | 1010.8 |
| 20260509175143 | 32 | 239 | 1.6 | 4.8 | 0.00 | 0.00 | 0.00 | 64 | 1010.8 |
| 20260509174640 | 31 | 258 | 0.0 | 3.2 | 0.00 | 0.00 | 0.00 | 67 | 1011.1 |
| 20260509174140 | 30 | 324 | 0.0 | 0.0 | 0.00 | 0.00 | 0.00 | 69 | 1011.1 |
| 20260509173636 | 30 | 322 | 1.6 | 1.6 | 0.00 | 0.00 | 0.00 | 71 | 1011.2 |
| 20260509173132 | 31 | 241 | 1.6 | 1.6 | 0.00 | 0.00 | 0.00 | 66 | 1011.5 |
| 20260509172629 | 30 | 140 | 6.4 | 6.4 | 0.00 | 0.00 | 0.00 | 71 | 1011.5 |
| 20260509172125 | 29 | 309 | 0.0 | 3.2 | 0.00 | 0.00 | 0.00 | 73 | 1011.5 |
| 20260509171621 | 29 | 126 | 1.6 | 4.8 | 0.00 | 0.00 | 0.00 | 75 | 1011.6 |
| 20260509171117 | 28 | 277 | 1.6 | 3.2 | 0.00 | 0.00 | 0.00 | 74 | 1011.6 |
| 20260509170614 | 28 | 87 | 0.0 | 3.2 | 0.00 | 0.00 | 0.00 | 79 | 1011.5 |
| 20260509170110 | 27 | 85 | 0.0 | 3.2 | 0.00 | 0.00 | 0.00 | 78 | 1011.7 |
| 20260509165608 | 27 | 123 | 0.0 | 3.2 | 0.00 | 0.00 | 0.00 | 81 | 1011.8 |
| 20260509165104 | 27 | 126 | 1.6 | 3.2 | 0.00 | 0.00 | 0.00 | 80 | 1011.6 |
| 20260509164600 | 27 | 58 | 0.0 | 1.6 | 0.00 | 0.00 | 0.00 | 81 | 1011.8 |
| 20260509164055 | 27 | 314 | 1.6 | 1.6 | 0.00 | 0.00 | 0.00 | 81 | 1011.7 |
| 20260509163554 | 27 | 108 | 0.0 | 0.0 | 0.00 | 0.00 | 0.00 | 82 | 1011.9 |
| 20260509163054 | 27 | 133 | 0.0 | 1.6 | 0.00 | 0.00 | 0.00 | 80 | 1011.8 |
| 20260509162552 | 28 | 85 | 0.0 | 0.0 | 0.00 | 0.00 | 0.00 | 80 | 1011.7 |
| 20260509162048 | 27 | 340 | 0.0 | 0.0 | 0.00 | 0.00 | 0.00 | 81 | 1011.5 |
| 20260509161544 | 27 | 38 | 0.0 | 0.0 | 0.00 | 0.00 | 0.00 | 82 | 1011.6 |
| 20260509161039 | 27 | 128 | 0.0 | 1.6 | 0.00 | 0.00 | 0.00 | 81 | 1011.3 |
| 20260509160535 | 27 | 128 | 0.0 | 0.0 | 0.00 | 0.00 | 0.00 | 83 | 1011.4 |
| 20260509160031 | 27 | 33 | 0.0 | 0.0 | 0.00 | 0.00 | 0.00 | 84 | 1011.4 |
| 20260509155527 | 26 | 25 | 0.0 | 1.6 | 0.00 | 0.00 | 0.00 | 85 | 1011.4 |
| 20260509155023 | 26 | 55 | 1.6 | 3.2 | 0.00 | 0.00 | 0.00 | 85 | 1011.5 |
| 20260509154519 | 27 | 60 | 1.6 | 1.6 | 0.00 | 0.00 | 0.00 | 82 | 1011.5 |
| 20260509154017 | 27 | 150 | 0.0 | 0.0 | 0.00 | 0.00 | 0.00 | 82 | 1011.4 |
| 20260509153514 | 27 | 213 | 0.0 | 0.0 | 0.00 | 0.00 | 0.00 | 83 | 1011.2 |
| 20260509153011 | 27 | 82 | 0.0 | 0.0 | 0.00 | 0.00 | 0.00 | 85 | 1011.1 |
| 20260509152507 | 27 | 117 | 0.0 | 0.0 | 0.00 | 0.00 | 0.00 | 87 | 1011.1 |
| 20260509152003 | 26 | 32 | 0.0 | 0.0 | 0.00 | 0.00 | 0.00 | 87 | 1011.3 |
| 20260509151500 | 26 | 263 | 0.0 | 1.6 | 0.00 | 0.00 | 0.00 | 89 | 1011.2 |
| 20260509150959 | 26 | 33 | 0.0 | 0.0 | 0.00 | 0.00 | 0.00 | 91 | 1011.1 |
| 20260509150455 | 25 | 105 | 0.0 | 0.0 | 0.00 | 0.00 | 0.00 | 91 | 1011.1 |
| 20260509145953 | 25 | 64 | 0.0 | 6.4 | 0.00 | 0.00 | 0.00 | 92 | 1010.9 |
| 20260509145448 | 25 | 113 | 1.6 | 6.4 | 0.00 | 0.00 | 0.00 | 93 | 1011.1 |
| 20260509144944 | 25 | 138 | 0.0 | 4.8 | 0.00 | 0.00 | 0.00 | 94 | 1011.1 |
| 20260509144441 | 25 | 144 | 4.8 | 4.8 | 0.00 | 0.00 | 0.00 | 94 | 1011.2 |
| 20260509143938 | 25 | 107 | 0.0 | 4.8 | 0.00 | 0.00 | 0.00 | 95 | 1011.0 |
| 20260509143436 | 25 | 119 | 1.6 | 1.6 | 0.00 | 0.00 | 0.00 | 95 | 1011.1 |
| 20260509142932 | 24 | 123 | 0.0 | 0.0 | 0.00 | 0.00 | 0.00 | 95 | 1010.8 |
| 20260509142428 | 24 | 123 | 1.6 | 3.2 | 0.00 | 0.00 | 0.00 | 95 | 1010.5 |
| 20260509141924 | 24 | 133 | 3.2 | 4.8 | 0.00 | 0.00 | 0.00 | 96 | 1010.4 |
| 20260509141421 | 24 | 133 | 0.0 | 0.0 | 0.00 | 0.00 | 0.00 | 96 | 1010.6 |
| 20260509140918 | 24 | 122 | 0.0 | 1.6 | 0.00 | 0.00 | 0.00 | 96 | 1010.4 |
| 20260509140414 | 24 | 140 | 0.0 | 3.2 | 0.00 | 0.00 | 0.00 | 96 | 1010.4 |
| 20260509135913 | 24 | 74 | 0.0 | 0.0 | 0.00 | 0.00 | 0.00 | 96 | 1010.6 |
| 20260509135410 | 24 | 94 | 0.0 | 0.0 | 0.00 | 0.00 | 0.00 | 97 | 1010.7 |
| 20260509134907 | 24 | 156 | 3.2 | 4.8 | 0.00 | 0.00 | 0.00 | 97 | 1010.7 |
| 20260509134404 | 24 | 81 | 0.0 | 0.0 | 0.00 | 0.00 | 0.00 | 97 | 1010.7 |
| 20260509133901 | 24 | 357 | 0.0 | 0.0 | 0.00 | 0.00 | 0.00 | 97 | 1011.1 |
| 20260509133358 | 24 | 290 | 0.0 | 0.0 | 0.00 | 0.00 | 0.00 | 98 | 1011.4 |
| 20260509132857 | 24 | 148 | 1.6 | 4.8 | 0.00 | 0.00 | 0.00 | 97 | 1011.3 |
| 20260509132354 | 24 | 25 | 0.0 | 0.0 | 0.00 | 0.00 | 0.00 | 98 | 1011.6 |
| 20260509131851 | 24 | 5 | 0.0 | 0.0 | 0.00 | 0.00 | 0.00 | 98 | 1011.9 |
| 20260509131348 | 24 | 45 | 0.0 | 0.0 | 0.00 | 0.00 | 0.00 | 98 | 1012.0 |
| 20260509130845 | 24 | 249 | 0.0 | 0.0 | 0.00 | 0.00 | 0.00 | 98 | 1011.6 |
| 20260509130340 | 24 | 261 | 0.0 | 3.2 | 0.00 | 0.00 | 0.00 | 98 | 1011.5 |
| 20260509125837 | 24 | 106 | 0.0 | 1.6 | 0.00 | 0.00 | 0.00 | 98 | 1011.4 |
| 20260509125333 | 24 | 128 | 0.0 | 0.0 | 0.00 | 0.00 | 0.00 | 98 | 1011.2 |
| 20260509124830 | 23 | 135 | 1.6 | 3.2 | 0.00 | 0.00 | 0.00 | 98 | 1011.6 |
| 20260509124327 | 23 | 139 | 1.6 | 1.6 | 0.00 | 0.00 | 0.00 | 98 | 1011.4 |
| 20260509123825 | 23 | 136 | 0.0 | 0.0 | 0.00 | 0.00 | 0.00 | 98 | 1011.4 |
| 20260509123322 | 23 | 146 | 0.0 | 0.0 | 0.00 | 0.00 | 0.00 | 98 | 1011.4 |
| 20260509122817 | 23 | 261 | 0.0 | 0.0 | 0.00 | 0.00 | 0.00 | 98 | 1011.5 |
| 20260509122314 | 23 | 262 | 0.0 | 0.0 | 0.00 | 0.00 | 0.00 | 98 | 1011.5 |
| 20260509121811 | 23 | 246 | 0.0 | 1.6 | 0.00 | 0.00 | 0.00 | 98 | 1011.4 |
| 20260509121308 | 23 | 284 | 0.0 | 1.6 | 0.00 | 0.00 | 0.00 | 98 | 1011.5 |
| 20260509120807 | 23 | 127 | 0.0 | 0.0 | 0.00 | 0.00 | 0.00 | 98 | 1011.5 |
| 20260509120304 | 23 | 146 | 0.0 | 1.6 | 0.00 | 0.00 | 0.00 | 98 | 1011.4 |
| 20260509115802 | 23 | 137 | 0.0 | 1.6 | 0.00 | 0.00 | 0.00 | 98 | 1011.2 |
| 20260509115259 | 23 | 130 | 0.0 | 4.8 | 0.00 | 0.00 | 0.00 | 98 | 1011.2 |
| 20260509114757 | 23 | 151 | 0.0 | 0.0 | 0.00 | 0.00 | 0.00 | 98 | 1011.2 |
| 20260509114255 | 23 | 71 | 0.0 | 0.0 | 0.00 | 0.00 | 0.00 | 98 | 1011.3 |
| 20260509113754 | 23 | 71 | 0.0 | 0.0 | 0.00 | 0.00 | 0.00 | 98 | 1011.1 |
| 20260509113250 | 23 | 106 | 0.0 | 0.0 | 0.00 | 0.00 | 0.00 | 98 | 1011.0 |
| 20260509112747 | 23 | 136 | 0.0 | 0.0 | 0.00 | 0.00 | 0.00 | 98 | 1010.8 |
| 20260509112244 | 23 | 137 | 0.0 | 0.0 | 0.00 | 0.00 | 0.00 | 98 | 1011.0 |
| 20260509111742 | 23 | 137 | 0.0 | 0.0 | 0.00 | 0.00 | 0.00 | 98 | 1011.0 |
| 20260509111238 | 23 | 136 | 0.0 | 0.0 | 0.00 | 0.00 | 0.00 | 98 | 1010.9 |
| 20260509110736 | 23 | 143 | 0.0 | 0.0 | 0.00 | 0.00 | 0.00 | 98 | 1011.1 |
| 20260509110232 | 23 | 143 | 0.0 | 0.0 | 0.00 | 0.00 | 0.00 | 98 | 1011.1 |
| 20260509105730 | 23 | 143 | 0.0 | 0.0 | 0.00 | 0.00 | 0.00 | 97 | 1011.0 |
| 20260509105228 | 23 | 143 | 0.0 | 0.0 | 0.00 | 0.00 | 0.00 | 98 | 1010.7 |
| 20260509104724 | 23 | 143 | 0.0 | 0.0 | 0.00 | 0.00 | 0.00 | 97 | 1010.4 |
| 20260509104221 | 23 | 143 | 0.0 | 0.0 | 0.00 | 0.00 | 0.00 | 97 | 1010.6 |
| 20260509103720 | 23 | 143 | 0.0 | 0.0 | 0.00 | 0.00 | 0.00 | 97 | 1010.7 |
| 20260509103216 | 23 | 143 | 0.0 | 0.0 | 0.00 | 0.00 | 0.00 | 97 | 1010.7 |
| 20260509102715 | 23 | 117 | 0.0 | 0.0 | 0.00 | 0.00 | 0.00 | 97 | 1010.8 |
| 20260509102211 | 23 | 104 | 0.0 | 0.0 | 0.00 | 0.00 | 0.00 | 97 | 1010.4 |
| 20260509101708 | 23 | 104 | 0.0 | 0.0 | 0.00 | 0.00 | 0.00 | 97 | 1010.7 |
| 20260509101204 | 23 | 127 | 0.0 | 0.0 | 0.00 | 0.00 | 0.00 | 97 | 1010.6 |
| 20260509100701 | 23 | 110 | 0.0 | 0.0 | 0.00 | 0.00 | 0.00 | 97 | 1010.4 |
| 20260509100158 | 23 | 110 | 0.0 | 0.0 | 0.00 | 0.00 | 0.00 | 97 | 1010.3 |
| 20260509095655 | 23 | 110 | 0.0 | 0.0 | 0.00 | 0.00 | 0.00 | 97 | 1010.6 |
| 20260509095153 | 23 | 110 | 0.0 | 0.0 | 0.00 | 0.00 | 0.00 | 97 | 1010.5 |
| 20260509094649 | 23 | 112 | 0.0 | 0.0 | 0.00 | 0.00 | 0.00 | 97 | 1010.3 |
| 20260509094146 | 23 | 112 | 0.0 | 0.0 | 0.00 | 0.00 | 0.00 | 97 | 1010.3 |
| 20260509093644 | 23 | 112 | 0.0 | 0.0 | 0.00 | 0.00 | 0.00 | 97 | 1010.1 |
| 20260509093141 | 23 | 112 | 0.0 | 0.0 | 0.00 | 0.00 | 0.00 | 97 | 1010.3 |
| 20260509092639 | 23 | 112 | 0.0 | 0.0 | 0.00 | 0.00 | 0.00 | 97 | 1010.3 |
| 20260509092138 | 23 | 112 | 0.0 | 0.0 | 0.00 | 0.00 | 0.00 | 97 | 1010.4 |
| 20260509091635 | 23 | 112 | 0.0 | 0.0 | 0.00 | 0.00 | 0.00 | 97 | 1010.4 |
| 20260509091131 | 23 | 112 | 0.0 | 0.0 | 0.00 | 0.00 | 0.00 | 97 | 1010.0 |
| 20260509090629 | 23 | 110 | 0.0 | 0.0 | 0.00 | 0.00 | 0.00 | 97 | 1010.3 |
| 20260509090126 | 23 | 127 | 0.0 | 0.0 | 0.00 | 0.00 | 0.00 | 97 | 1010.3 |
| 20260509085623 | 23 | 127 | 0.0 | 0.0 | 0.00 | 0.00 | 0.00 | 96 | 1010.4 |
| 20260509085119 | 23 | 128 | 0.0 | 0.0 | 0.00 | 0.00 | 0.00 | 96 | 1010.3 |
| 20260509084617 | 23 | 111 | 0.0 | 0.0 | 0.00 | 0.00 | 0.00 | 96 | 1010.1 |
| 20260509084113 | 23 | 111 | 0.0 | 0.0 | 0.00 | 0.00 | 0.00 | 96 | 1010.1 |
| 20260509083611 | 23 | 105 | 0.0 | 0.0 | 0.00 | 0.00 | 0.00 | 96 | 1010.0 |
| 20260509083107 | 23 | 85 | 0.0 | 0.0 | 0.00 | 0.00 | 0.00 | 96 | 1010.2 |
| 20260509082605 | 23 | 84 | 0.0 | 0.0 | 0.00 | 0.00 | 0.00 | 96 | 1010.1 |
| 20260509082101 | 23 | 103 | 0.0 | 0.0 | 0.00 | 0.00 | 0.00 | 96 | 1010.3 |